Weather History for KTSP - June, 2013

Change the Weather History Date:

Friday, June 28, 2013

  Actual Average Record
Temperature  
Mean Temperature 76 °F -  
Max Temperature 89 °F 83 °F 89 °F (2013)
Min Temperature 64 °F 54 °F 46 °F (2012)
Cooling Degree Days 12    
Growing Degree Days 26 (Base 50)    
Moisture  
Dew Point 55 °F    
Average Humidity 47    
Maximum Humidity 73    
Minimum Humidity 29    
Precipitation  
Precipitation 0.00 in - - ()
Sea Level Pressure  
Sea Level Pressure 30.17 in    
Wind  
Wind Speed 10 mph (WNW)    
Max Wind Speed 18 mph    
Max Gust Speed 25 mph    
Visibility 10 miles    
Events      
Averages and records for this station are not official NWS values.
T = Trace of Precipitation, MM = Missing Value Source: NWS Daily Summary

Daily Weather History Graph

Daily Weather History Graph

Search for Another Location

Airport or City:

Trip Planner

Search our weather history database for the weather conditions in past years. The results will help you decide how hot, cold, wet, or windy it might be!

Date:

Astronomy

Jun. 28, 2013 Rise Set
Actual Time 5:42 AM PDT 8:12 PM PDT
Civil Twilight 5:12 AM PDT 8:41 PM PDT
Nautical Twilight 4:35 AM PDT 9:18 PM PDT
Astronomical Twilight 3:54 AM PDT 9:59 PM PDT
Moon 11:59 PM PDT 11:40 AM PDT
Length of Visible Light 15h 29m
Length of Day
14h 30m
Waning Gibbous, 65% of the Moon is Illuminated
Jun 28
Waning Gibbous
Jun 29
Last Quarter
Jul 8
New
Jul 15
First Quarter
Jul 22
Full

Hourly Weather History & Observations

Time (PDT) Temp. Heat Index Dew Point Humidity Pressure Visibility Wind Dir Wind Speed Gust Speed Precip Events Conditions
12:15 AM 68.0 °F - 55.4 °F 64% 30.23 in 9.0 mi West 8.1 mph - N/A   Clear
12:35 AM 68.0 °F - 55.4 °F 64% 30.23 in 10.0 mi West 8.1 mph - N/A   Clear
12:55 AM 68.0 °F - 55.4 °F 64% 30.23 in 10.0 mi West 8.1 mph - N/A   Clear
1:15 AM 68.0 °F - 55.4 °F 64% 30.23 in 10.0 mi West 8.1 mph - N/A   Clear
1:35 AM 68.0 °F - 55.4 °F 64% 30.23 in 10.0 mi West 8.1 mph - N/A   Clear
1:55 AM 68.0 °F - 55.4 °F 64% 30.22 in 10.0 mi West 8.1 mph - N/A   Clear
2:15 AM 68.0 °F - 55.4 °F 64% 30.21 in 10.0 mi West 9.2 mph - N/A   Clear
2:35 AM 68.0 °F - 55.4 °F 64% 30.21 in 10.0 mi West 8.1 mph - N/A   Clear
2:55 AM 66.2 °F - 55.4 °F 68% 30.20 in 10.0 mi WNW 4.6 mph - N/A   Clear
3:15 AM 66.2 °F - 55.4 °F 68% 30.20 in 10.0 mi West 4.6 mph - N/A   Clear
3:35 AM 66.2 °F - 55.4 °F 68% 30.19 in 10.0 mi NW 3.5 mph - N/A   Clear
3:55 AM 64.4 °F - 55.4 °F 73% 30.19 in 10.0 mi West 4.6 mph - N/A   Clear
4:15 AM 64.4 °F - 55.4 °F 73% 30.19 in 10.0 mi West 4.6 mph - N/A   Partly Cloudy
4:35 AM 64.4 °F - 55.4 °F 73% 30.18 in 10.0 mi West 3.5 mph - N/A   Partly Cloudy
4:55 AM 64.4 °F - 55.4 °F 73% 30.19 in 10.0 mi West 3.5 mph - N/A   Clear
5:55 AM 64.4 °F - 55.4 °F 73% 30.19 in 10.0 mi Calm Calm - N/A   Clear
6:15 AM 64.4 °F - 55.4 °F 73% 30.19 in 10.0 mi Calm Calm - N/A   Clear
6:35 AM 66.2 °F - 55.4 °F 68% 30.19 in 10.0 mi Calm Calm - N/A   Clear
6:55 AM 69.8 °F - 55.4 °F 60% 30.20 in 10.0 mi West 5.8 mph - N/A   Clear
7:15 AM 71.6 °F - 57.2 °F 60% 30.20 in 10.0 mi WNW 5.8 mph - N/A   Clear
7:35 AM 75.2 °F - 57.2 °F 53% 30.20 in 10.0 mi NW 6.9 mph - N/A   Clear
7:55 AM 75.2 °F - 57.2 °F 53% 30.20 in 10.0 mi WNW 10.4 mph - N/A   Clear
8:15 AM 77.0 °F - 57.2 °F 50% 30.20 in 10.0 mi NW 10.4 mph - N/A   Clear
8:35 AM 77.0 °F - 55.4 °F 47% 30.20 in 10.0 mi NW 10.4 mph - N/A   Clear
8:55 AM 78.8 °F - 55.4 °F 44% 30.20 in 10.0 mi WNW 11.5 mph - N/A   Clear
9:15 AM 80.6 °F 80.8 °F 57.2 °F 45% 30.20 in 10.0 mi NW 9.2 mph - N/A   Clear
9:35 AM 80.6 °F 80.5 °F 55.4 °F 42% 30.20 in 10.0 mi WNW 11.5 mph - N/A   Clear
9:55 AM 80.6 °F 80.5 °F 55.4 °F 42% 30.19 in 10.0 mi WNW 12.7 mph - N/A   Clear
10:15 AM 82.4 °F 81.7 °F 55.4 °F 39% 30.19 in 10.0 mi NW 13.8 mph 17.3 mph N/A   Clear
10:35 AM 84.2 °F 83.0 °F 55.4 °F 37% 30.19 in 10.0 mi NW 15.0 mph 19.6 mph N/A   Clear
10:55 AM 84.2 °F 83.0 °F 55.4 °F 37% 30.19 in 10.0 mi NW 15.0 mph - N/A   Clear
11:15 AM 84.2 °F 83.0 °F 55.4 °F 37% 30.19 in 10.0 mi NW 15.0 mph - N/A   Clear
11:35 AM 86.0 °F 84.5 °F 55.4 °F 35% 30.18 in 9.0 mi NW 15.0 mph 19.6 mph N/A   Clear
11:55 AM 86.0 °F 84.5 °F 55.4 °F 35% 30.18 in 10.0 mi NW 17.3 mph - N/A   Clear
12:15 PM 86.0 °F 84.5 °F 55.4 °F 35% 30.18 in 10.0 mi NW 16.1 mph 19.6 mph N/A   Clear
12:35 PM 87.8 °F 86.1 °F 55.4 °F 33% 30.18 in 9.0 mi NW 15.0 mph 21.9 mph N/A   Clear
12:55 PM 87.8 °F 85.7 °F 53.6 °F 31% 30.17 in 10.0 mi NW 16.1 mph 19.6 mph N/A   Clear
1:15 PM 89.6 °F 87.3 °F 53.6 °F 29% 30.17 in 10.0 mi NW 16.1 mph 19.6 mph N/A   Clear
1:35 PM 89.6 °F 87.3 °F 53.6 °F 29% 30.16 in 10.0 mi NW 17.3 mph - N/A   Clear
1:55 PM 89.6 °F 87.7 °F 55.4 °F 31% 30.16 in 10.0 mi NW 16.1 mph 21.9 mph N/A   Clear
2:15 PM 89.6 °F 87.7 °F 55.4 °F 31% 30.15 in 10.0 mi NW 17.3 mph 24.2 mph N/A   Clear
2:35 PM 89.6 °F 87.7 °F 55.4 °F 31% 30.15 in 10.0 mi NW 17.3 mph - N/A   Clear
2:55 PM 89.6 °F 87.7 °F 55.4 °F 31% 30.14 in 10.0 mi NW 16.1 mph - N/A   Clear
3:15 PM 89.6 °F 87.7 °F 55.4 °F 31% 30.13 in 10.0 mi NW 16.1 mph - N/A   Clear
3:35 PM 89.6 °F 87.7 °F 55.4 °F 31% 30.13 in 10.0 mi NW 13.8 mph 20.7 mph N/A   Clear
3:55 PM 89.6 °F 87.7 °F 55.4 °F 31% 30.13 in 10.0 mi NW 15.0 mph 25.3 mph N/A   Clear
4:15 PM 87.8 °F 86.1 °F 55.4 °F 33% 30.13 in 10.0 mi NW 15.0 mph 24.2 mph N/A   Clear
4:35 PM 87.8 °F 86.1 °F 55.4 °F 33% 30.12 in 10.0 mi NW 16.1 mph 20.7 mph N/A   Clear
4:55 PM 87.8 °F 86.1 °F 55.4 °F 33% 30.12 in 10.0 mi NW 18.4 mph 21.9 mph N/A   Clear
5:15 PM 86.0 °F 84.2 °F 53.6 °F 33% 30.12 in 10.0 mi NW 16.1 mph 21.9 mph N/A   Clear
5:35 PM 86.0 °F 84.2 °F 53.6 °F 33% 30.12 in 10.0 mi NW 16.1 mph - N/A   Clear
5:55 PM 86.0 °F 84.2 °F 53.6 °F 33% 30.12 in 10.0 mi NW 17.3 mph 23.0 mph N/A   Clear
6:15 PM 86.0 °F 84.2 °F 53.6 °F 33% 30.12 in 10.0 mi NW 16.1 mph 19.6 mph N/A   Clear
6:35 PM 84.2 °F 82.8 °F 53.6 °F 35% 30.12 in 10.0 mi WNW 16.1 mph - N/A   Clear
6:55 PM 84.2 °F 82.8 °F 53.6 °F 35% 30.12 in 10.0 mi NW 13.8 mph - N/A   Clear
7:15 PM 84.2 °F 82.8 °F 53.6 °F 35% 30.12 in 10.0 mi WNW 15.0 mph - N/A   Clear
7:35 PM 82.4 °F 81.4 °F 53.6 °F 37% 30.13 in 10.0 mi WNW 13.8 mph 20.7 mph N/A   Clear
7:55 PM 80.6 °F 80.3 °F 53.6 °F 39% 30.13 in 10.0 mi WNW 12.7 mph - N/A   Clear
8:15 PM 78.8 °F - 53.6 °F 42% 30.14 in 10.0 mi WNW 10.4 mph - N/A   Clear
8:35 PM 77.0 °F - 53.6 °F 44% 30.14 in 10.0 mi West 10.4 mph - N/A   Clear
8:55 PM 77.0 °F - 53.6 °F 44% 30.14 in 10.0 mi West 9.2 mph - N/A   Clear
9:15 PM 77.0 °F - 53.6 °F 44% 30.14 in 10.0 mi West 9.2 mph - N/A   Clear
9:35 PM 75.2 °F - 53.6 °F 47% 30.15 in 10.0 mi WNW 8.1 mph - N/A   Clear
9:55 PM 75.2 °F - 53.6 °F 47% 30.15 in 10.0 mi West 8.1 mph - N/A   Clear
10:15 PM 73.4 °F - 53.6 °F 50% 30.15 in 10.0 mi West 8.1 mph - N/A   Clear
10:35 PM 73.4 °F - 53.6 °F 50% 30.15 in 10.0 mi West 8.1 mph - N/A   Clear
10:55 PM 73.4 °F - 53.6 °F 50% 30.15 in 10.0 mi WNW 8.1 mph - N/A   Clear
11:15 PM 73.4 °F - 53.6 °F 50% 30.15 in 10.0 mi WNW 8.1 mph - N/A   Clear
11:35 PM 73.4 °F - 53.6 °F 50% 30.15 in 10.0 mi NW 4.6 mph - N/A   Clear
11:55 PM 71.6 °F - 51.8 °F 50% 30.15 in 10.0 mi WNW 4.6 mph - N/A   Clear